Station History

Weather Underground - logo

Station Historical Data
Daily Summary for August 21, 2017 Units:  English    Metric   Both
« Previous Day
Next Day »
Daily Weekly Monthly Yearly Custom
  High: Low: Average:
Temperature: TemperatureF °F 67.5 °F 79.6 °F
Dew Point: DewpointF °F 57.4 °F 64.4 °F
Humidity: Humidity % 40 % 61 %
Wind Speed: WindSpeedMPH mph 0.0 mph 1.1 mph
Wind Gust: WindSpeedGustMPH mph - -
Wind:- - SSW
Pressure: PressureIn in 29.79 in -
Precipitation: 0.00 in    
Historical Graphs
 
 
Tabular Data for August 21, 2017
Time Temperature Dew Point Pressure Wind Wind Speed Wind Gust Humidity Rainfall Rate (Hourly)
TemperatureF °F DewpointF °F PressureIn in Calm     Humidity % HourlyPrecipIn in
00:03 75.4 °F 66.5 °F 29.79 in Calm     74 % 0.00 in
00:08 75.2 °F 66.7 °F 29.79 in Calm     75 % 0.00 in
00:13 75.1 °F 67.0 °F 29.80 in Calm     76 % 0.00 in
00:18 75.0 °F 66.9 °F 29.80 in Calm     76 % 0.00 in
00:23 74.9 °F 66.8 °F 29.80 in Calm     76 % 0.00 in
00:28 74.9 °F 67.2 °F 29.80 in SE 1.2 mph   77 % 0.00 in
00:33 74.7 °F 66.6 °F 29.80 in Calm     76 % 0.00 in
00:38 74.4 °F 66.7 °F 29.80 in Calm     77 % 0.00 in
00:43 74.0 °F 66.7 °F 29.80 in Calm     78 % 0.00 in
00:48 73.8 °F 66.5 °F 29.80 in Calm     78 % 0.00 in
00:53 73.7 °F 66.4 °F 29.80 in Calm     78 % 0.00 in
00:58 73.6 °F 66.3 °F 29.80 in SE 1.2 mph   78 % 0.00 in
01:03 73.7 °F 66.4 °F 29.80 in Calm     78 % 0.00 in
01:08 73.7 °F 66.4 °F 29.80 in Calm     78 % 0.00 in
01:13 73.7 °F 66.4 °F 29.81 in Calm     78 % 0.00 in
01:18 73.6 °F 66.3 °F 29.81 in SE 1.2 mph   78 % 0.00 in
01:23 73.3 °F 66.0 °F 29.81 in Calm     78 % 0.00 in
01:28 73.2 °F 66.3 °F 29.81 in Calm     79 % 0.00 in
01:33 72.9 °F 66.0 °F 29.81 in SE 1.0 mph 1.0 mph 79 % 0.00 in
01:38 72.5 °F 65.6 °F 29.81 in SE 1.2 mph 1.2 mph 79 % 0.00 in
01:43 72.3 °F 65.4 °F 29.81 in Calm     79 % 0.00 in
01:48 72.2 °F 65.7 °F 29.81 in SE 1.2 mph   80 % 0.00 in
01:53 72.0 °F 65.5 °F 29.81 in SE 1.2 mph   80 % 0.00 in
01:58 72.0 °F 65.5 °F 29.81 in SE 1.2 mph   80 % 0.00 in
02:03 72.0 °F 65.5 °F 29.81 in Calm     80 % 0.00 in
02:08 72.0 °F 65.5 °F 29.81 in Calm     80 % 0.00 in
02:13 71.9 °F 65.4 °F 29.81 in Calm     80 % 0.00 in
02:18 71.8 °F 65.3 °F 29.81 in Calm     80 % 0.00 in
02:23 71.6 °F 65.5 °F 29.81 in Calm     81 % 0.00 in
02:28 71.4 °F 64.9 °F 29.81 in SE 1.2 mph   80 % 0.00 in
02:33 71.4 °F 64.9 °F 29.81 in Calm     80 % 0.00 in
02:38 71.2 °F 64.7 °F 29.81 in Calm     80 % 0.00 in
02:43 71.1 °F 64.6 °F 29.82 in Calm     80 % 0.00 in
02:48 71.0 °F 64.5 °F 29.82 in Calm     80 % 0.00 in
02:53 71.0 °F 64.9 °F 29.82 in SE 1.2 mph   81 % 0.00 in
02:58 70.9 °F 64.4 °F 29.82 in Calm     80 % 0.00 in
03:03 70.8 °F 64.3 °F 29.82 in SE 1.2 mph   80 % 0.00 in
03:08 70.7 °F 63.9 °F 29.82 in Calm     79 % 0.00 in
03:13 70.7 °F 63.5 °F 29.82 in Calm     78 % 0.00 in
03:18 70.6 °F 63.0 °F 29.82 in Calm     77 % 0.00 in
03:23 70.5 °F 62.6 °F 29.82 in Calm     76 % 0.00 in
03:28 70.5 °F 61.8 °F 29.82 in Calm     74 % 0.00 in
03:33 70.5 °F 61.4 °F 29.82 in Calm     73 % 0.00 in
03:38 70.4 °F 61.7 °F 29.83 in Calm     74 % 0.00 in
03:43 70.2 °F 61.5 °F 29.83 in Calm     74 % 0.00 in
03:48 70.1 °F 61.0 °F 29.83 in Calm     73 % 0.00 in
03:54 70.0 °F 60.9 °F 29.83 in Calm     73 % 0.00 in
03:59 70.0 °F 60.9 °F 29.83 in Calm     73 % 0.00 in
04:04 69.9 °F 60.8 °F 29.83 in Calm     73 % 0.00 in
04:09 69.9 °F 60.8 °F 29.83 in Calm     73 % 0.00 in
04:14 69.8 °F 61.1 °F 29.83 in Calm     74 % 0.00 in
04:19 69.6 °F 60.9 °F 29.83 in Calm     74 % 0.00 in
04:24 69.5 °F 60.5 °F 29.83 in Calm     73 % 0.00 in
04:29 69.5 °F 60.5 °F 29.83 in Calm     73 % 0.00 in
04:34 69.5 °F 60.1 °F 29.83 in Calm     72 % 0.00 in
04:39 69.4 °F 60.0 °F 29.83 in SE 1.2 mph 1.2 mph 72 % 0.00 in
04:44 69.4 °F 60.0 °F 29.83 in Calm     72 % 0.00 in
04:49 69.2 °F 59.8 °F 29.83 in Calm     72 % 0.00 in
04:54 69.0 °F 59.6 °F 29.83 in Calm     72 % 0.00 in
04:59 68.8 °F 59.4 °F 29.84 in Calm     72 % 0.00 in
05:04 68.7 °F 58.5 °F 29.84 in ESE 1.2 mph 1.2 mph 70 % 0.00 in
05:09 68.6 °F 58.4 °F 29.84 in Calm     70 % 0.00 in
05:14 68.4 °F 58.2 °F 29.84 in Calm     70 % 0.00 in
05:19 68.4 °F 58.2 °F 29.84 in Calm     70 % 0.00 in
05:24 68.4 °F 58.2 °F 29.84 in Calm     70 % 0.00 in
05:29 68.3 °F 58.1 °F 29.84 in Calm     70 % 0.00 in
05:34 68.3 °F 58.1 °F 29.84 in Calm     70 % 0.00 in
05:39 68.2 °F 58.0 °F 29.85 in Calm     70 % 0.00 in
05:44 68.1 °F 57.9 °F 29.85 in Calm     70 % 0.00 in
05:49 68.0 °F 57.8 °F 29.85 in Calm     70 % 0.00 in
05:54 67.9 °F 57.8 °F 29.85 in Calm     70 % 0.00 in
05:59 67.9 °F 57.8 °F 29.85 in Calm     70 % 0.00 in
06:04 67.9 °F 57.8 °F 29.85 in Calm     70 % 0.00 in
06:09 67.8 °F 57.7 °F 29.85 in Calm     70 % 0.00 in
06:14 67.7 °F 57.6 °F 29.85 in Calm     70 % 0.00 in
06:19 67.7 °F 57.6 °F 29.86 in SE 1.2 mph   70 % 0.00 in
06:24 67.7 °F 57.6 °F 29.86 in Calm     70 % 0.00 in
06:29 67.7 °F 57.6 °F 29.86 in Calm     70 % 0.00 in
06:34 67.7 °F 57.6 °F 29.86 in Calm     70 % 0.00 in
06:39 67.6 °F 57.5 °F 29.86 in Calm     70 % 0.00 in
06:40 67.6 °F 57.5 °F 29.86 in Calm     70 % 0.00 in
06:45 67.5 °F 57.4 °F 29.86 in Calm     70 % 0.00 in
06:50 67.5 °F 57.8 °F 29.86 in Calm     71 % 0.00 in
06:55 67.5 °F 58.2 °F 29.86 in Calm     72 % 0.00 in
07:00 67.5 °F 58.5 °F 29.87 in Calm     73 % 0.00 in
07:05 67.5 °F 58.5 °F 29.87 in Calm     73 % 0.00 in
07:10 67.7 °F 58.3 °F 29.87 in Calm     72 % 0.00 in
07:15 68.0 °F 59.0 °F 29.88 in SE 1.2 mph   73 % 0.00 in
07:20 68.3 °F 58.9 °F 29.88 in Calm     72 % 0.00 in
07:25 68.7 °F 58.9 °F 29.88 in SE 1.2 mph   71 % 0.00 in
07:31 69.0 °F 58.8 °F 29.88 in Calm     70 % 0.00 in
07:36 69.5 °F 58.9 °F 29.89 in Calm     69 % 0.00 in
07:41 70.2 °F 58.7 °F 29.89 in South 2.3 mph 2.3 mph 67 % 0.00 in
07:46 71.0 °F 59.5 °F 29.89 in SE 1.2 mph   67 % 0.00 in
07:51 71.8 °F 59.8 °F 29.89 in ESE 2.3 mph 2.3 mph 66 % 0.00 in
07:55 72.2 °F 60.2 °F 29.89 in ESE 2.3 mph 2.3 mph 66 % 0.00 in
08:00 72.6 °F 60.6 °F 29.89 in South 3.5 mph 3.5 mph 66 % 0.00 in
08:05 73.0 °F 61.0 °F 29.89 in Calm     66 % 0.00 in
08:10 73.5 °F 61.0 °F 29.89 in ESE 2.3 mph 2.3 mph 65 % 0.00 in
08:15 73.4 °F 61.3 °F 29.89 in SE 1.2 mph 1.2 mph 66 % 0.00 in
08:20 73.6 °F 61.5 °F 29.89 in Calm     66 % 0.00 in
08:21 73.7 °F 61.6 °F 29.89 in ENE 1.2 mph 1.2 mph 66 % 0.00 in
08:26 74.2 °F 62.1 °F 29.89 in East 3.0 mph 3.0 mph 66 % 0.00 in
08:31 74.6 °F 62.9 °F 29.89 in SE 1.2 mph   67 % 0.00 in
08:36 75.5 °F 62.9 °F 29.89 in South 3.5 mph 3.5 mph 65 % 0.00 in
08:41 76.4 °F 64.2 °F 29.89 in Calm     66 % 0.00 in
08:46 77.0 °F 63.9 °F 29.90 in Calm     64 % 0.00 in
08:51 77.6 °F 63.5 °F 29.90 in SSE 2.3 mph 2.3 mph 62 % 0.00 in
08:56 78.0 °F 63.9 °F 29.90 in South 2.0 mph   62 % 0.00 in
09:01 78.1 °F 63.6 °F 29.90 in South 3.5 mph 3.5 mph 61 % 0.00 in
09:06 78.2 °F 63.2 °F 29.90 in ESE 4.6 mph 4.6 mph 60 % 0.00 in
09:11 78.0 °F 63.0 °F 29.90 in ESE 2.3 mph 2.3 mph 60 % 0.00 in
09:16 78.5 °F 63.9 °F 29.90 in ENE 1.2 mph 1.2 mph 61 % 0.00 in
09:21 79.1 °F 64.0 °F 29.90 in South 3.5 mph 3.5 mph 60 % 0.00 in
09:26 79.3 °F 64.2 °F 29.90 in SSE 1.2 mph   60 % 0.00 in
09:31 79.7 °F 64.1 °F 29.90 in SE 2.3 mph 2.3 mph 59 % 0.00 in
09:36 79.9 °F 64.3 °F 29.90 in ESE 1.2 mph 1.2 mph 59 % 0.00 in
09:41 79.7 °F 64.1 °F 29.90 in ESE 2.3 mph 2.3 mph 59 % 0.00 in
09:46 79.2 °F 64.6 °F 29.90 in NE 1.2 mph   61 % 0.00 in
09:51 79.1 °F 65.4 °F 29.90 in NNE 1.2 mph   63 % 0.00 in
09:56 79.3 °F 64.7 °F 29.90 in South 1.2 mph 1.2 mph 61 % 0.00 in
10:01 79.3 °F 65.1 °F 29.90 in Calm     62 % 0.00 in
10:06 79.2 °F 65.5 °F 29.90 in Calm     63 % 0.00 in
10:11 79.0 °F 65.8 °F 29.90 in SE 1.0 mph 1.0 mph 64 % 0.00 in
10:16 78.6 °F 65.4 °F 29.90 in SSE 1.2 mph 1.2 mph 64 % 0.00 in
10:21 78.5 °F 66.2 °F 29.90 in Calm     66 % 0.00 in
10:26 78.1 °F 66.2 °F 29.90 in Calm     67 % 0.00 in
10:31 77.9 °F 66.1 °F 29.90 in Calm     67 % 0.00 in
10:36 77.9 °F 66.1 °F 29.90 in NNW 1.2 mph   67 % 0.00 in
10:41 77.9 °F 66.1 °F 29.90 in Calm     67 % 0.00 in
10:46 78.0 °F 65.7 °F 29.90 in NW 1.2 mph 1.2 mph 66 % 0.00 in
10:51 78.2 °F 66.3 °F 29.90 in Calm     67 % 0.00 in
10:56 78.9 °F 67.0 °F 29.90 in SSE 1.2 mph   67 % 0.00 in
11:01 79.4 °F 67.0 °F 29.90 in Calm     66 % 0.00 in
11:06 79.9 °F 66.2 °F 29.90 in NNW 1.2 mph 1.2 mph 63 % 0.00 in
11:11 80.0 °F 66.7 °F 29.90 in SE 1.2 mph 1.2 mph 64 % 0.00 in
11:16 80.5 °F 66.3 °F 29.90 in SW 1.2 mph 1.2 mph 62 % 0.00 in
11:21 81.0 °F 67.2 °F 29.90 in SSE 1.2 mph 1.2 mph 63 % 0.00 in
11:22 81.1 °F 67.3 °F 29.90 in SSE 1.2 mph   63 % 0.00 in
11:27 81.9 °F 67.1 °F 29.90 in SE 1.2 mph   61 % 0.00 in
11:32 82.6 °F 67.3 °F 29.90 in WNW 1.2 mph   60 % 0.00 in
11:37 83.4 °F 66.6 °F 29.90 in East 1.2 mph 1.2 mph 57 % 0.00 in
11:42 84.0 °F 67.1 °F 29.90 in WNW 2.0 mph 2.0 mph 57 % 0.00 in
11:47 84.5 °F 68.1 °F 29.90 in ESE 1.0 mph 1.0 mph 58 % 0.00 in
11:52 84.1 °F 66.2 °F 29.89 in WNW 2.0 mph 2.0 mph 55 % 0.00 in
11:57 84.3 °F 67.4 °F 29.89 in WNW 1.2 mph 1.2 mph 57 % 0.00 in
12:02 84.7 °F 67.8 °F 29.89 in North 1.2 mph   57 % 0.00 in
12:07 85.2 °F 66.1 °F 29.89 in NNE 1.2 mph   53 % 0.00 in
12:12 85.7 °F 67.7 °F 29.89 in ESE 1.2 mph   55 % 0.00 in
12:17 86.3 °F 67.7 °F 29.89 in NW 3.0 mph 3.0 mph 54 % 0.00 in
12:22 86.6 °F 68.0 °F 29.89 in SE 2.3 mph 2.3 mph 54 % 0.00 in
12:27 87.0 °F 67.8 °F 29.89 in WSW 2.3 mph 2.3 mph 53 % 0.00 in
12:32 87.0 °F 66.7 °F 29.89 in NW 1.2 mph 1.2 mph 51 % 0.00 in
12:37 87.4 °F 68.2 °F 29.88 in SSW 1.2 mph 1.2 mph 53 % 0.00 in
12:42 87.7 °F 66.2 °F 29.88 in NW 1.2 mph   49 % 0.00 in
12:47 88.2 °F 68.4 °F 29.88 in East 2.3 mph 2.3 mph 52 % 0.00 in
12:52 88.6 °F 68.2 °F 29.88 in North 2.3 mph 2.3 mph 51 % 0.00 in
12:57 88.5 °F 68.1 °F 29.88 in SSE 1.2 mph 1.2 mph 51 % 0.00 in
13:02 88.9 °F 67.9 °F 29.88 in SE 2.3 mph 2.3 mph 50 % 0.00 in
13:07 89.0 °F 68.5 °F 29.88 in South 2.3 mph 2.3 mph 51 % 0.00 in
13:12 89.8 °F 69.8 °F 29.88 in SSE 2.3 mph 2.3 mph 52 % 0.00 in
13:17 90.0 °F 67.7 °F 29.88 in SSE 2.3 mph   48 % 0.00 in
13:22 90.1 °F 66.5 °F 29.88 in NNE 2.3 mph 2.3 mph 46 % 0.00 in
13:27 89.8 °F 66.3 °F 29.88 in SSE 4.6 mph 4.6 mph 46 % 0.00 in
13:33 89.7 °F 68.0 °F 29.88 in North 1.2 mph 1.2 mph 49 % 0.00 in
13:38 90.4 °F 68.0 °F 29.88 in SE 1.2 mph 1.2 mph 48 % 0.00 in
13:43 90.8 °F 67.8 °F 29.88 in SSE 2.3 mph 2.3 mph 47 % 0.00 in
13:48 91.0 °F 68.0 °F 29.87 in East 1.2 mph 1.2 mph 47 % 0.00 in
13:53 90.6 °F 66.3 °F 29.87 in WNW 3.5 mph 3.5 mph 45 % 0.00 in
13:58 90.5 °F 66.3 °F 29.87 in ENE 2.3 mph 2.3 mph 45 % 0.00 in
14:03 90.7 °F 67.1 °F 29.87 in NE 3.5 mph 3.5 mph 46 % 0.00 in
14:08 90.9 °F 69.1 °F 29.87 in SSW 3.5 mph 3.5 mph 49 % 0.00 in
14:13 91.0 °F 66.1 °F 29.87 in NW 1.2 mph 1.2 mph 44 % 0.00 in
14:18 91.1 °F 68.7 °F 29.87 in SSE 2.3 mph 2.3 mph 48 % 0.00 in
14:23 91.6 °F 67.3 °F 29.87 in NE 2.3 mph 2.3 mph 45 % 0.00 in
14:28 91.7 °F 66.7 °F 29.87 in WNW 2.3 mph 2.3 mph 44 % 0.00 in
14:33 91.5 °F 67.2 °F 29.86 in NE 3.5 mph 3.5 mph 45 % 0.00 in
14:38 91.7 °F 67.3 °F 29.86 in South 2.3 mph 2.3 mph 45 % 0.00 in
14:43 92.2 °F 67.1 °F 29.86 in NW 2.3 mph 2.3 mph 44 % 0.00 in
14:48 92.0 °F 66.3 °F 29.86 in NW 2.3 mph 2.3 mph 43 % 0.00 in
14:53 91.3 °F 67.6 °F 29.85 in NNE 1.2 mph   46 % 0.00 in
14:58 91.9 °F 66.9 °F 29.85 in East 2.3 mph 2.3 mph 44 % 0.00 in
15:03 92.4 °F 68.0 °F 29.85 in NNW 2.3 mph 2.3 mph 45 % 0.00 in
15:08 92.4 °F 66.7 °F 29.85 in SW 3.5 mph 3.5 mph 43 % 0.00 in
15:13 92.4 °F 68.0 °F 29.85 in SE 2.3 mph   45 % 0.00 in
15:18 92.7 °F 66.9 °F 29.85 in SSE 2.3 mph 2.3 mph 43 % 0.00 in
15:23 92.7 °F 66.2 °F 29.85 in West 2.3 mph 2.3 mph 42 % 0.00 in
15:28 92.3 °F 67.9 °F 29.84 in WNW 1.2 mph 1.2 mph 45 % 0.00 in
15:33 92.5 °F 67.4 °F 29.84 in North 3.5 mph 3.5 mph 44 % 0.00 in
15:38 92.7 °F 68.9 °F 29.84 in WSW 2.3 mph 2.3 mph 46 % 0.00 in
15:43 93.0 °F 67.2 °F 29.84 in SE 1.2 mph 1.2 mph 43 % 0.00 in
15:48 92.7 °F 67.6 °F 29.84 in SSE 3.5 mph 3.5 mph 44 % 0.00 in
15:53 92.8 °F 67.7 °F 29.84 in ESE 3.0 mph 3.0 mph 44 % 0.00 in
15:58 93.0 °F 67.2 °F 29.84 in WNW 2.3 mph 2.3 mph 43 % 0.00 in
16:03 93.1 °F 68.0 °F 29.83 in South 2.3 mph 2.3 mph 44 % 0.00 in
16:08 92.9 °F 67.1 °F 29.83 in North 2.3 mph 2.3 mph 43 % 0.00 in
16:14 93.3 °F 68.1 °F 29.83 in NW 1.2 mph   44 % 0.00 in
16:19 93.6 °F 68.4 °F 29.83 in Calm     44 % 0.00 in
16:24 93.0 °F 67.2 °F 29.83 in West 2.3 mph 2.3 mph 43 % 0.00 in
16:29 92.9 °F 67.8 °F 29.83 in WNW 1.2 mph 1.2 mph 44 % 0.00 in
16:34 93.4 °F 67.6 °F 29.83 in South 1.2 mph   43 % 0.00 in
16:39 93.5 °F 68.3 °F 29.83 in NW 1.2 mph 1.2 mph 44 % 0.00 in
16:44 93.5 °F 67.6 °F 29.83 in WNW 2.3 mph 2.3 mph 43 % 0.00 in
16:49 93.6 °F 67.1 °F 29.83 in WNW 2.3 mph 2.3 mph 42 % 0.00 in
16:54 93.6 °F 66.4 °F 29.82 in NNW 1.2 mph 1.2 mph 41 % 0.00 in
16:59 93.6 °F 67.1 °F 29.82 in NW 1.2 mph 1.2 mph 42 % 0.00 in
17:04 93.4 °F 66.2 °F 29.82 in NW 1.2 mph 1.2 mph 41 % 0.00 in
17:09 93.4 °F 66.9 °F 29.82 in NNW 2.3 mph 2.3 mph 42 % 0.00 in
17:14 92.9 °F 65.0 °F 29.82 in WNW 3.5 mph 3.5 mph 40 % 0.00 in
17:19 92.5 °F 65.4 °F 29.82 in WNW 3.5 mph 3.5 mph 41 % 0.00 in
17:24 92.1 °F 65.0 °F 29.82 in NW 2.3 mph 2.3 mph 41 % 0.00 in
17:29 92.1 °F 65.7 °F 29.82 in NW 2.0 mph 2.0 mph 42 % 0.00 in
17:34 92.0 °F 64.9 °F 29.82 in NW 1.2 mph 1.2 mph 41 % 0.00 in
17:39 92.0 °F 66.3 °F 29.82 in NW 3.5 mph 3.5 mph 43 % 0.00 in
17:44 91.7 °F 66.0 °F 29.82 in NW 1.2 mph 1.2 mph 43 % 0.00 in
17:49 91.7 °F 66.0 °F 29.82 in WNW 3.5 mph 3.5 mph 43 % 0.00 in
17:54 91.3 °F 65.7 °F 29.82 in NW 3.5 mph 3.5 mph 43 % 0.00 in
17:59 91.1 °F 65.5 °F 29.82 in NNW 3.5 mph 3.5 mph 43 % 0.00 in
18:04 90.9 °F 65.3 °F 29.82 in NNW 3.5 mph 3.5 mph 43 % 0.00 in
18:09 90.7 °F 65.1 °F 29.82 in WNW 3.5 mph 3.5 mph 43 % 0.00 in
18:14 90.5 °F 65.6 °F 29.82 in NW 3.5 mph 3.5 mph 44 % 0.00 in
18:19 90.2 °F 66.0 °F 29.82 in WNW 2.3 mph 2.3 mph 45 % 0.00 in
18:24 89.9 °F 65.7 °F 29.82 in NW 2.3 mph 2.3 mph 45 % 0.00 in
18:29 89.7 °F 66.2 °F 29.81 in NW 3.5 mph 3.5 mph 46 % 0.00 in
18:34 89.3 °F 66.4 °F 29.82 in NW 2.3 mph 2.3 mph 47 % 0.00 in
18:39 88.8 °F 66.0 °F 29.82 in WNW 3.5 mph 3.5 mph 47 % 0.00 in
18:44 88.5 °F 66.9 °F 29.82 in NW 2.3 mph 2.3 mph 49 % 0.00 in
18:49 88.2 °F 66.6 °F 29.82 in NW 3.0 mph 3.0 mph 49 % 0.00 in
18:54 87.9 °F 66.4 °F 29.82 in NW 3.5 mph 3.5 mph 49 % 0.00 in
18:59 87.6 °F 66.1 °F 29.82 in NNW 2.3 mph 2.3 mph 49 % 0.00 in
19:04 87.4 °F 65.9 °F 29.82 in WNW 2.3 mph 2.3 mph 49 % 0.00 in
19:09 87.3 °F 66.4 °F 29.83 in NW 2.3 mph 2.3 mph 50 % 0.00 in
19:14 86.8 °F 67.1 °F 29.83 in NW 1.2 mph 1.2 mph 52 % 0.00 in
19:19 86.3 °F 66.6 °F 29.83 in NW 1.2 mph 1.2 mph 52 % 0.00 in
19:24 85.9 °F 66.8 °F 29.83 in NW 1.2 mph 1.2 mph 53 % 0.00 in
19:30 85.5 °F 66.4 °F 29.83 in WNW 1.2 mph   53 % 0.00 in
19:35 85.3 °F 66.8 °F 29.84 in Calm     54 % 0.00 in
19:45 85.0 °F 66.5 °F 29.84 in NW 1.2 mph 1.2 mph 54 % 0.00 in
19:50 84.9 °F 66.4 °F 29.84 in NW 1.2 mph 1.2 mph 54 % 0.00 in
19:55 84.7 °F 66.2 °F 29.83 in WNW 2.3 mph 2.3 mph 54 % 0.00 in
20:00 84.3 °F 65.8 °F 29.83 in WNW 1.2 mph   54 % 0.00 in
20:05 84.1 °F 65.7 °F 29.84 in Calm     54 % 0.00 in
20:10 84.0 °F 65.6 °F 29.84 in Calm     54 % 0.00 in
20:15 83.9 °F 65.5 °F 29.84 in NNW 1.0 mph 1.0 mph 54 % 0.00 in
20:20 83.8 °F 65.4 °F 29.85 in Calm     54 % 0.00 in
20:21 83.8 °F 65.4 °F 29.85 in Calm     54 % 0.00 in
20:22 83.7 °F 65.3 °F 29.85 in Calm     54 % 0.00 in
20:25 83.6 °F 65.2 °F 29.85 in Calm     54 % 0.00 in
20:30 83.2 °F 65.9 °F 29.85 in Calm     56 % 0.00 in
20:35 82.8 °F 66.0 °F 29.85 in Calm     57 % 0.00 in
20:40 82.6 °F 65.3 °F 29.85 in NNW 1.2 mph   56 % 0.00 in
20:45 82.8 °F 65.0 °F 29.86 in Calm     55 % 0.00 in
20:50 82.8 °F 65.5 °F 29.86 in Calm     56 % 0.00 in
20:55 82.5 °F 65.7 °F 29.86 in Calm     57 % 0.00 in
21:00 82.1 °F 66.4 °F 29.86 in SE 1.2 mph 1.2 mph 59 % 0.00 in
21:05 81.2 °F 66.9 °F 29.86 in SE 1.2 mph   62 % 0.00 in
21:06 81.0 °F 66.8 °F 29.87 in Calm     62 % 0.00 in
21:11 80.3 °F 67.0 °F 29.86 in Calm     64 % 0.00 in
21:16 79.9 °F 67.1 °F 29.87 in SE 1.2 mph   65 % 0.00 in
21:21 79.4 °F 67.0 °F 29.87 in SE 1.2 mph   66 % 0.00 in
21:26 78.9 °F 67.4 °F 29.87 in Calm     68 % 0.00 in
21:31 78.6 °F 67.2 °F 29.87 in Calm     68 % 0.00 in
21:36 78.4 °F 67.4 °F 29.88 in Calm     69 % 0.00 in
21:41 78.3 °F 66.9 °F 29.88 in Calm     68 % 0.00 in
21:43 78.2 °F 67.2 °F 29.88 in Calm     69 % 0.00 in
21:48 78.2 °F 67.2 °F 29.88 in Calm     69 % 0.00 in
21:53 78.1 °F 67.1 °F 29.88 in Calm     69 % 0.00 in
21:58 78.0 °F 67.0 °F 29.88 in Calm     69 % 0.00 in
22:03 77.9 °F 66.9 °F 29.88 in Calm     69 % 0.00 in
22:08 77.6 °F 66.2 °F 29.88 in Calm     68 % 0.00 in
22:10 77.5 °F 66.9 °F 29.88 in Calm     70 % 0.00 in
22:15 77.5 °F 66.5 °F 29.88 in Calm     69 % 0.00 in
22:20 77.4 °F 66.0 °F 29.88 in Calm     68 % 0.00 in
22:25 77.5 °F 65.2 °F 29.88 in Calm     66 % 0.00 in
22:30 77.6 °F 64.9 °F 29.88 in Calm     65 % 0.00 in
22:36 77.9 °F 63.8 °F 29.88 in Calm     62 % 0.00 in
22:41 78.3 °F 64.2 °F 29.89 in North 1.0 mph   62 % 0.00 in
22:46 78.4 °F 63.8 °F 29.89 in Calm     61 % 0.00 in
22:51 78.7 °F 63.2 °F 29.89 in Calm     59 % 0.00 in
22:56 78.8 °F 63.3 °F 29.89 in Calm     59 % 0.00 in
23:01 78.7 °F 63.2 °F 29.89 in Calm     59 % 0.00 in
23:06 78.5 °F 64.4 °F 29.89 in Calm     62 % 0.00 in
23:11 78.1 °F 64.0 °F 29.89 in Calm     62 % 0.00 in
23:16 77.7 °F 64.1 °F 29.89 in Calm     63 % 0.00 in
23:21 76.9 °F 63.8 °F 29.89 in Calm     64 % 0.00 in
23:26 76.8 °F 63.7 °F 29.89 in Calm     64 % 0.00 in
23:31 76.8 °F 63.7 °F 29.89 in Calm     64 % 0.00 in
23:36 76.7 °F 63.2 °F 29.89 in Calm     63 % 0.00 in
23:41 76.9 °F 63.3 °F 29.89 in Calm     63 % 0.00 in
23:46 77.0 °F 63.4 °F 29.89 in Calm     63 % 0.00 in
23:51 76.9 °F 62.9 °F 29.89 in Calm     62 % 0.00 in
23:56 76.8 °F 63.2 °F 29.89 in Calm     63 % 0.00 in
Park Place, Exeter, Tulare County, California, USA
Compliments of Weather Underground - 2.75 mb